Location: Doux
(49.5045°N, 4.4321°E)
Time: 19:19:06
(UTC+00:00)

Cosmos 2333 Rocket - Pass Details

Date: 23 May 2024
Orbit: 839 x 863 km, 70.8° (Epoch: 14 June)

Event Time Altitude Azimuth Distance (km) Brightness Sun altitude
Rises 02:29:51 0° 328° (NNW) 3,426 5.6 -10.3°
Reaches altitude 10° 02:32:20 10° 325° (NW) 2,490 4.8 -10.0°
Maximum altitude 02:37:55 58° 248° (WSW) 998 2.3 -9.4°
Drops below altitude 10° 02:43:31 10° 170° (S) 2,488 4.3 -8.8°
Sets 02:46:00 0° 167° (SSE) 3,423 5.0 -8.5°
